Погода в Нытве

Россия / Пермский край     57°56′20″N   55°19′43″E
темп.,
°C
ветер,
м/с
пор.,
м/с
влажн.,
%
обл.,
%
осадки,
мм/ч
давл.,
гПа
погр.,
м
20 сентября, пн
пн2023:00+4ссз3864100 0.0 1022751
02:00+2сз397774 0.0 1024376
05:000сз39905 0.0 1025257
08:00−1сз28925 0.0 1027286
11:00+5с356765 0.0 1027870
14:00+6с4460100 0.0 10281216
17:00+5ссв3463100 0.0 10291085
20:00+4св2572100 0.0 1030204
21 сентября, вт
вт2123:00+3св1476100 0.0 1031145
02:00+4св2268100 0.0 103158
05:00+3ссв117179 0.0 103119
08:00+1св11845 0.0 103117
11:00+6всв22635 0.0 1030669
14:00+9св11535 0.0 10281016
17:00+9с12525 0.0 10261058
20:00+4ссв22765 0.0 102611
22 сентября, ср
ср2223:00+2св11875 0.0 102610
02:00+1ссв11915 0.0 102610
05:000ссв11925 0.0 102610
08:000ссв11885 0.0 102632
11:00+7св23645 0.0 1026505
14:00+10св235720 0.0 1025982
17:00+10св336036 0.0 10251015
20:00+5всв23885 0.0 102657
23 сентября, чт
чт2323:00+3всв11935 0.0 102710
02:00+2всв22955 0.0 102741
05:00+1в21935 0.0 102714
08:00+2в26903 0.0 1028137
11:00+9юв47606 0.0 1027512
14:00+12юв4651100 0.0 1026871
17:00+13юв365361 0.0 1025838
20:00+9вюв2769100 0.0 1025148
24 сентября, пт
пт2423:00+8вюв2773100 0.0 1025137
02:00+8вюв2371100 0.0 102483
05:00+8ю3878100 0.1 1024275
08:00+8ююв31291100 0.4 1024541
11:00+10ююв41087100 0.5 1024556
14:00+11ююв4975100 0.0 1023610
17:00+11ююв41164100 0.0 1022590
20:00+10юв31167100 0.0 1021440